St. Petersburg Airport, FL

4:12 AM EDT on May 21, 2018 (GMT -0400)
Saint Petersburg-Clearwater International

Weather History for KPIE - February, 2013

Change the Weather History Date:

Thursday, February 14, 2013

  Actual Average Record
Temperature  
Mean Temperature 62 °F -  
Max Temperature 64 °F 71 °F 84 °F (1997)
Min Temperature 60 °F 54 °F 36 °F (1958)
Degree Days  
Heating Degree Days 3    
Growing Degree Days 12 (Base 50)    
Moisture  
Dew Point 57 °F    
Average Humidity 86    
Maximum Humidity 93    
Minimum Humidity 77    
Precipitation  
Precipitation 0.41 in - - ()
Sea Level Pressure  
Sea Level Pressure 30.02 in    
Wind  
Wind Speed 6 mph (North)    
Max Wind Speed 15 mph    
Max Gust Speed 21 mph    
Visibility 9 miles    
Events Rain    
Averages and records for this station are not official NWS values.
T = Trace of Precipitation, MM = Missing Value Source: NWS Daily Summary

Daily Weather History Graph

Daily Weather History Graph

Search for Another Location

Airport or City:

Astronomy

Feb. 14, 2013 Rise Set
Actual Time 7:08 AM EST 6:21 PM EST
Civil Twilight 6:44 AM EST 6:45 PM EST
Nautical Twilight 6:17 AM EST 7:12 PM EST
Astronomical Twilight 5:49 AM EST 7:40 PM EST
Moon 9:39 AM EST (2/14) 10:51 PM EST (2/14)
Length of Visible Light 12h 00m
Length of Day
11h 12m
Waxing Crescent, 21% of the Moon is Illuminated
Feb 14
Waxing Crescent
Feb 17
First Quarter
Feb 25
Full
Mar 4
Last Quarter
Mar 11
New

Hourly Weather History & Observations

Time (EST) Temp. Dew Point Humidity Pressure Visibility Wind Dir Wind Speed Gust Speed Precip Events Conditions
12:53 AM 62.1 °F 57.0 °F 84% 29.97 in 10.0 mi SE 8.1 mph - N/A   Overcast
1:53 AM 63.0 °F 57.0 °F 81% 29.98 in 10.0 mi Calm Calm - N/A   Overcast
2:53 AM 63.0 °F 57.9 °F 84% 29.96 in 10.0 mi Calm Calm - N/A   Overcast
3:53 AM 63.0 °F 57.9 °F 84% 29.96 in 10.0 mi Calm Calm - N/A   Overcast
4:53 AM 63.0 °F 57.9 °F 84% 29.94 in 10.0 mi Calm Calm - N/A   Overcast
5:53 AM 63.0 °F 60.1 °F 90% 29.96 in 6.0 mi Calm Calm - N/A Rain Light Rain
6:53 AM 62.1 °F 59.0 °F 90% 29.99 in 10.0 mi Calm Calm - N/A   Mostly Cloudy
7:53 AM 64.0 °F 57.0 °F 78% 30.00 in 10.0 mi NE 4.6 mph - N/A   Overcast
8:53 AM 64.9 °F 57.9 °F 78% 30.02 in 10.0 mi ENE 3.5 mph - N/A   Overcast
9:53 AM 64.0 °F 57.9 °F 80% 30.05 in 10.0 mi North 6.9 mph - N/A   Overcast
10:30 AM 64.4 °F 57.2 °F 77% 30.07 in 4.0 mi North 9.2 mph - 0.00 in Rain Light Rain
10:53 AM 63.0 °F 57.9 °F 84% 30.06 in 4.0 mi NNW 13.8 mph - 0.01 in Rain Light Rain
11:40 AM 62.6 °F 57.2 °F 82% 30.06 in 2.5 mi NNW 10.4 mph - 0.04 in Rain Light Rain
11:53 AM 62.1 °F 57.9 °F 86% 30.06 in 2.5 mi NNW 13.8 mph - 0.08 in Rain Rain
12:02 PM 62.6 °F 57.2 °F 82% 30.06 in 3.0 mi North 10.4 mph - 0.02 in Rain Light Rain
12:53 PM 62.1 °F 57.9 °F 86% 30.00 in 3.0 mi NNE 9.2 mph - 0.14 in Rain Rain
1:53 PM 63.0 °F 57.9 °F 84% 30.00 in 10.0 mi ESE 3.5 mph - 0.01 in Rain Light Rain
2:53 PM 63.0 °F 57.0 °F 81% 29.99 in 10.0 mi Calm Calm - 0.02 in Rain Light Rain
3:53 PM 63.0 °F 59.0 °F 87% 29.98 in 10.0 mi North 3.5 mph - 0.01 in Rain Light Rain
4:53 PM 61.0 °F 57.0 °F 87% 30.00 in 10.0 mi Calm Calm - 0.04 in Rain Light Rain
5:53 PM 60.1 °F 57.0 °F 90% 30.01 in 10.0 mi NNW 6.9 mph - 0.01 in Rain Light Rain
6:00 PM 60.8 °F 57.2 °F 88% 30.01 in 10.0 mi NNW 10.4 mph - 0.00 in Rain Light Rain
6:24 PM 60.8 °F 57.2 °F 88% 30.03 in 10.0 mi NNW 13.8 mph - 0.00 in   Overcast
6:31 PM 60.8 °F 57.2 °F 88% 30.04 in 10.0 mi NNW 15.0 mph 20.7 mph 0.00 in   Overcast
6:39 PM 60.8 °F 57.2 °F 88% 30.03 in 10.0 mi North 12.7 mph - 0.00 in   Overcast
6:53 PM 60.1 °F 57.0 °F 90% 30.03 in 10.0 mi NNW 13.8 mph - 0.00 in   Overcast
7:00 PM 60.8 °F 57.2 °F 88% 30.03 in 10.0 mi North 10.4 mph - N/A   Overcast
7:11 PM 60.8 °F 57.2 °F 88% 30.03 in 10.0 mi North 6.9 mph - 0.00 in Rain Light Rain
7:35 PM 60.8 °F 55.4 °F 82% 30.03 in 10.0 mi NE 5.8 mph - 0.00 in   Overcast
7:50 PM 60.8 °F 55.4 °F 82% 30.03 in 10.0 mi East 6.9 mph - 0.00 in   Overcast
7:53 PM 60.1 °F 55.9 °F 86% 30.03 in 10.0 mi ENE 6.9 mph - 0.00 in   Overcast
8:27 PM 60.8 °F 57.2 °F 88% 30.04 in 10.0 mi ENE 4.6 mph - 0.01 in   Overcast
8:53 PM 60.1 °F 57.0 °F 90% 30.01 in 10.0 mi ESE 8.1 mph - 0.01 in Rain Light Rain
9:40 PM 60.8 °F 57.2 °F 88% 30.04 in 10.0 mi NW 6.9 mph - 0.01 in   Overcast
9:51 PM 60.8 °F 57.2 °F 88% 30.05 in 10.0 mi NW 8.1 mph - 0.01 in   Overcast
9:53 PM 61.0 °F 57.9 °F 90% 30.06 in 10.0 mi NW 4.6 mph - 0.01 in   Overcast
10:53 PM 60.1 °F 57.9 °F 93% 30.01 in 8.0 mi Calm Calm - 0.05 in   Overcast
11:53 PM 60.1 °F 57.0 °F 90% 30.02 in 9.0 mi NW 5.8 mph - 0.02 in Rain Light Rain